owner,sensor,date,latitude,longitude,air_pressure(mBar),qcFlag 
WAVCIS,ioos:station:WAVCIS:CSI06:1,2013-07-01T00:00:00Z,28.8667,-90.4833,1007.57,11111222 
WAVCIS,ioos:station:WAVCIS:CSI06:1,2013-07-01T01:00:00Z,28.8667,-90.4833,1007.99,11111222 
WAVCIS,ioos:station:WAVCIS:CSI06:1,2013-07-01T02:00:00Z,28.8667,-90.4833,1008.45,11111222 
WAVCIS,ioos:station:WAVCIS:CSI06:1,2013-07-01T03:00:00Z,28.8667,-90.4833,1008.91,11111222 
WAVCIS,ioos:station:WAVCIS:CSI06:1,2013-07-01T04:00:00Z,28.8667,-90.4833,1009.33,11111222 
WAVCIS,ioos:station:WAVCIS:CSI06:1,2013-07-01T05:00:00Z,28.8667,-90.4833,1009.63,11111222 
WAVCIS,ioos:station:WAVCIS:CSI06:1,2013-07-01T06:00:00Z,28.8667,-90.4833,1009.68,11111222 
WAVCIS,ioos:station:WAVCIS:CSI06:1,2013-07-01T07:00:00Z,28.8667,-90.4833,1009.56,11111222 
WAVCIS,ioos:station:WAVCIS:CSI06:1,2013-07-01T08:00:00Z,28.8667,-90.4833,1009.53,11111222 
WAVCIS,ioos:station:WAVCIS:CSI06:1,2013-07-01T09:00:00Z,28.8667,-90.4833,1009.76,11111222 
WAVCIS,ioos:station:WAVCIS:CSI06:1,2013-07-01T10:00:00Z,28.8667,-90.4833,1010.0,11111222 
WAVCIS,ioos:station:WAVCIS:CSI06:1,2013-07-01T11:00:00Z,28.8667,-90.4833,1010.48,11111222 
WAVCIS,ioos:station:WAVCIS:CSI06:1,2013-07-01T12:00:00Z,28.8667,-90.4833,1010.76,11111222 
WAVCIS,ioos:station:WAVCIS:CSI06:1,2013-07-01T13:00:00Z,28.8667,-90.4833,1011.31,11111222 
WAVCIS,ioos:station:WAVCIS:CSI06:1,2013-07-01T14:00:00Z,28.8667,-90.4833,1011.87,11111222 
WAVCIS,ioos:station:WAVCIS:CSI06:1,2013-07-01T15:00:00Z,28.8667,-90.4833,1012.1,11111222 
WAVCIS,ioos:station:WAVCIS:CSI06:1,2013-07-01T16:00:00Z,28.8667,-90.4833,1012.38,11111222 
WAVCIS,ioos:station:WAVCIS:CSI06:1,2013-07-01T17:00:00Z,28.8667,-90.4833,1012.32,11111222 
WAVCIS,ioos:station:WAVCIS:CSI06:1,2013-07-01T18:00:00Z,28.8667,-90.4833,1012.01,11111222 
WAVCIS,ioos:station:WAVCIS:CSI06:1,2013-07-01T19:00:00Z,28.8667,-90.4833,1011.5,11111222 
WAVCIS,ioos:station:WAVCIS:CSI06:1,2013-07-01T20:00:00Z,28.8667,-90.4833,1011.39,11111222 
WAVCIS,ioos:station:WAVCIS:CSI06:1,2013-07-01T21:00:00Z,28.8667,-90.4833,1011.34,11111222 
WAVCIS,ioos:station:WAVCIS:CSI06:1,2013-07-01T22:00:00Z,28.8667,-90.4833,1011.28,11111222 
WAVCIS,ioos:station:WAVCIS:CSI06:1,2013-07-01T23:00:00Z,28.8667,-90.4833,1011.27,11111222 
WAVCIS,ioos:station:WAVCIS:CSI06:1,2013-07-02T00:00:00Z,28.8667,-90.4833,1011.52,11111222 
WAVCIS,ioos:station:WAVCIS:CSI06:1,2013-07-02T01:00:00Z,28.8667,-90.4833,1012.1,11111222 
WAVCIS,ioos:station:WAVCIS:CSI06:1,2013-07-02T02:00:00Z,28.8667,-90.4833,1012.29,11111222 
WAVCIS,ioos:station:WAVCIS:CSI06:1,2013-07-02T03:00:00Z,28.8667,-90.4833,1012.82,11111222 
WAVCIS,ioos:station:WAVCIS:CSI06:1,2013-07-02T04:00:00Z,28.8667,-90.4833,1013.19,11111222 
WAVCIS,ioos:station:WAVCIS:CSI06:1,2013-07-02T05:00:00Z,28.8667,-90.4833,1013.18,11111222 
WAVCIS,ioos:station:WAVCIS:CSI06:1,2013-07-02T06:00:00Z,28.8667,-90.4833,1012.82,11111222 
WAVCIS,ioos:station:WAVCIS:CSI06:1,2013-07-02T07:00:00Z,28.8667,-90.4833,1012.68,11111222 
WAVCIS,ioos:station:WAVCIS:CSI06:1,2013-07-02T08:00:00Z,28.8667,-90.4833,1012.55,11111222 
WAVCIS,ioos:station:WAVCIS:CSI06:1,2013-07-02T09:00:00Z,28.8667,-90.4833,1012.53,11111222 
WAVCIS,ioos:station:WAVCIS:CSI06:1,2013-07-02T10:00:00Z,28.8667,-90.4833,1013.04,11111222 
WAVCIS,ioos:station:WAVCIS:CSI06:1,2013-07-02T11:00:00Z,28.8667,-90.4833,1013.72,11111222 
WAVCIS,ioos:station:WAVCIS:CSI06:1,2013-07-02T12:00:00Z,28.8667,-90.4833,1013.94,11111222 
WAVCIS,ioos:station:WAVCIS:CSI06:1,2013-07-02T13:00:00Z,28.8667,-90.4833,1014.23,11111222 
WAVCIS,ioos:station:WAVCIS:CSI06:1,2013-07-02T14:00:00Z,28.8667,-90.4833,1014.63,11111222 
WAVCIS,ioos:station:WAVCIS:CSI06:1,2013-07-02T15:00:00Z,28.8667,-90.4833,1014.89,11111222 
WAVCIS,ioos:station:WAVCIS:CSI06:1,2013-07-02T16:00:00Z,28.8667,-90.4833,1015.01,11111222 
WAVCIS,ioos:station:WAVCIS:CSI06:1,2013-07-02T17:00:00Z,28.8667,-90.4833,1015.13,11111222 
WAVCIS,ioos:station:WAVCIS:CSI06:1,2013-07-02T18:00:00Z,28.8667,-90.4833,1014.99,11111222 
WAVCIS,ioos:station:WAVCIS:CSI06:1,2013-07-02T19:00:00Z,28.8667,-90.4833,1014.78,11111222 
WAVCIS,ioos:station:WAVCIS:CSI06:1,2013-07-02T20:00:00Z,28.8667,-90.4833,1014.56,11111222 
WAVCIS,ioos:station:WAVCIS:CSI06:1,2013-07-02T21:00:00Z,28.8667,-90.4833,1014.02,11111222 
WAVCIS,ioos:station:WAVCIS:CSI06:1,2013-07-02T22:00:00Z,28.8667,-90.4833,1013.67,11111222 
WAVCIS,ioos:station:WAVCIS:CSI06:1,2013-07-02T23:00:00Z,28.8667,-90.4833,1013.77,11111222 
WAVCIS,ioos:station:WAVCIS:CSI06:1,2013-07-03T00:00:00Z,28.8667,-90.4833,1014.06,11111222 
WAVCIS,ioos:station:WAVCIS:CSI06:1,2013-07-03T01:00:00Z,28.8667,-90.4833,1014.65,11111222 
WAVCIS,ioos:station:WAVCIS:CSI06:1,2013-07-03T02:00:00Z,28.8667,-90.4833,1014.68,11111222 
WAVCIS,ioos:station:WAVCIS:CSI06:1,2013-07-03T03:00:00Z,28.8667,-90.4833,1014.79,11111222 
WAVCIS,ioos:station:WAVCIS:CSI06:1,2013-07-03T04:00:00Z,28.8667,-90.4833,1015.37,11111222 
WAVCIS,ioos:station:WAVCIS:CSI06:1,2013-07-03T05:00:00Z,28.8667,-90.4833,1015.25,11111222 
WAVCIS,ioos:station:WAVCIS:CSI06:1,2013-07-03T06:00:00Z,28.8667,-90.4833,1014.87,11111222 
WAVCIS,ioos:station:WAVCIS:CSI06:1,2013-07-03T07:00:00Z,28.8667,-90.4833,1014.55,11111222 
WAVCIS,ioos:station:WAVCIS:CSI06:1,2013-07-03T08:00:00Z,28.8667,-90.4833,1014.18,11111222 
WAVCIS,ioos:station:WAVCIS:CSI06:1,2013-07-03T09:00:00Z,28.8667,-90.4833,1014.2,11111222 
WAVCIS,ioos:station:WAVCIS:CSI06:1,2013-07-03T10:00:00Z,28.8667,-90.4833,1014.15,11111222 
WAVCIS,ioos:station:WAVCIS:CSI06:1,2013-07-03T11:00:00Z,28.8667,-90.4833,1014.29,11111222 
WAVCIS,ioos:station:WAVCIS:CSI06:1,2013-07-03T12:00:00Z,28.8667,-90.4833,1015.03,11111222 
WAVCIS,ioos:station:WAVCIS:CSI06:1,2013-07-03T13:00:00Z,28.8667,-90.4833,1015.4,11111222 
WAVCIS,ioos:station:WAVCIS:CSI06:1,2013-07-03T14:00:00Z,28.8667,-90.4833,1015.65,11111222 
WAVCIS,ioos:station:WAVCIS:CSI06:1,2013-07-03T15:00:00Z,28.8667,-90.4833,1016.06,11111222 
WAVCIS,ioos:station:WAVCIS:CSI06:1,2013-07-03T16:00:00Z,28.8667,-90.4833,1015.86,11111222 
WAVCIS,ioos:station:WAVCIS:CSI06:1,2013-07-03T17:00:00Z,28.8667,-90.4833,1015.81,11111222 
WAVCIS,ioos:station:WAVCIS:CSI06:1,2013-07-03T18:00:00Z,28.8667,-90.4833,1015.4,11111222 
WAVCIS,ioos:station:WAVCIS:CSI06:1,2013-07-03T19:00:00Z,28.8667,-90.4833,1014.91,11111222 
WAVCIS,ioos:station:WAVCIS:CSI06:1,2013-07-03T20:00:00Z,28.8667,-90.4833,1014.8,11111222 
WAVCIS,ioos:station:WAVCIS:CSI06:1,2013-07-03T21:00:00Z,28.8667,-90.4833,1014.13,11111222 
WAVCIS,ioos:station:WAVCIS:CSI06:1,2013-07-03T22:00:00Z,28.8667,-90.4833,1013.58,11111222 
WAVCIS,ioos:station:WAVCIS:CSI06:1,2013-07-03T23:00:00Z,28.8667,-90.4833,1013.12,11111222 
WAVCIS,ioos:station:WAVCIS:CSI06:1,2013-07-04T00:00:00Z,28.8667,-90.4833,1013.21,11111222 
WAVCIS,ioos:station:WAVCIS:CSI06:1,2013-07-04T01:00:00Z,28.8667,-90.4833,1013.6,11111222 
WAVCIS,ioos:station:WAVCIS:CSI06:1,2013-07-04T02:00:00Z,28.8667,-90.4833,1014.03,11111222 
WAVCIS,ioos:station:WAVCIS:CSI06:1,2013-07-04T03:00:00Z,28.8667,-90.4833,1014.15,11111222 
WAVCIS,ioos:station:WAVCIS:CSI06:1,2013-07-04T04:00:00Z,28.8667,-90.4833,1014.15,11111222 
WAVCIS,ioos:station:WAVCIS:CSI06:1,2013-07-04T05:00:00Z,28.8667,-90.4833,1013.75,11111222 
WAVCIS,ioos:station:WAVCIS:CSI06:1,2013-07-04T06:00:00Z,28.8667,-90.4833,1014.1,11111222 
WAVCIS,ioos:station:WAVCIS:CSI06:1,2013-07-04T07:00:00Z,28.8667,-90.4833,1013.35,11111222 
WAVCIS,ioos:station:WAVCIS:CSI06:1,2013-07-04T08:00:00Z,28.8667,-90.4833,1013.33,11111222 
WAVCIS,ioos:station:WAVCIS:CSI06:1,2013-07-04T09:00:00Z,28.8667,-90.4833,1013.01,11111222 
WAVCIS,ioos:station:WAVCIS:CSI06:1,2013-07-04T10:00:00Z,28.8667,-90.4833,1013.35,11111222 
WAVCIS,ioos:station:WAVCIS:CSI06:1,2013-07-04T11:00:00Z,28.8667,-90.4833,1013.39,11111222 
WAVCIS,ioos:station:WAVCIS:CSI06:1,2013-07-04T12:00:00Z,28.8667,-90.4833,1013.57,11111222 
WAVCIS,ioos:station:WAVCIS:CSI06:1,2013-07-04T13:00:00Z,28.8667,-90.4833,1013.78,11111222 
WAVCIS,ioos:station:WAVCIS:CSI06:1,2013-07-04T14:00:00Z,28.8667,-90.4833,1014.35,11111222 
WAVCIS,ioos:station:WAVCIS:CSI06:1,2013-07-04T15:00:00Z,28.8667,-90.4833,1014.43,11111222 
WAVCIS,ioos:station:WAVCIS:CSI06:1,2013-07-04T16:00:00Z,28.8667,-90.4833,1014.46,11111222 
WAVCIS,ioos:station:WAVCIS:CSI06:1,2013-07-04T17:00:00Z,28.8667,-90.4833,1015.03,11111222 
WAVCIS,ioos:station:WAVCIS:CSI06:1,2013-07-04T18:00:00Z,28.8667,-90.4833,1014.77,11111222 
WAVCIS,ioos:station:WAVCIS:CSI06:1,2013-07-04T19:00:00Z,28.8667,-90.4833,1014.02,11111222 
WAVCIS,ioos:station:WAVCIS:CSI06:1,2013-07-04T20:00:00Z,28.8667,-90.4833,1013.9,11111222 
WAVCIS,ioos:station:WAVCIS:CSI06:1,2013-07-04T21:00:00Z,28.8667,-90.4833,1013.93,11111222 
WAVCIS,ioos:station:WAVCIS:CSI06:1,2013-07-04T22:00:00Z,28.8667,-90.4833,1013.73,11111222 
WAVCIS,ioos:station:WAVCIS:CSI06:1,2013-07-04T23:00:00Z,28.8667,-90.4833,1013.6,11111222 
WAVCIS,ioos:station:WAVCIS:CSI06:1,2013-07-05T00:00:00Z,28.8667,-90.4833,1013.61,11111222 
WAVCIS,ioos:station:WAVCIS:CSI06:1,2013-07-05T01:00:00Z,28.8667,-90.4833,1014.18,11111222 
WAVCIS,ioos:station:WAVCIS:CSI06:1,2013-07-05T02:00:00Z,28.8667,-90.4833,1014.2,11111222 
WAVCIS,ioos:station:WAVCIS:CSI06:1,2013-07-05T03:00:00Z,28.8667,-90.4833,1014.54,11111222 
WAVCIS,ioos:station:WAVCIS:CSI06:1,2013-07-05T04:00:00Z,28.8667,-90.4833,1014.89,11111222 
WAVCIS,ioos:station:WAVCIS:CSI06:1,2013-07-05T05:00:00Z,28.8667,-90.4833,1014.77,11111222 
WAVCIS,ioos:station:WAVCIS:CSI06:1,2013-07-05T06:00:00Z,28.8667,-90.4833,1014.75,11111222 
WAVCIS,ioos:station:WAVCIS:CSI06:1,2013-07-05T07:00:00Z,28.8667,-90.4833,1014.36,11111222 
WAVCIS,ioos:station:WAVCIS:CSI06:1,2013-07-05T08:00:00Z,28.8667,-90.4833,1014.19,11111222 
WAVCIS,ioos:station:WAVCIS:CSI06:1,2013-07-05T09:00:00Z,28.8667,-90.4833,1014.35,11111222 
WAVCIS,ioos:station:WAVCIS:CSI06:1,2013-07-05T10:00:00Z,28.8667,-90.4833,1014.39,11111222 
WAVCIS,ioos:station:WAVCIS:CSI06:1,2013-07-05T11:00:00Z,28.8667,-90.4833,1014.46,11111222 
WAVCIS,ioos:station:WAVCIS:CSI06:1,2013-07-05T12:00:00Z,28.8667,-90.4833,1014.6,11111222 
WAVCIS,ioos:station:WAVCIS:CSI06:1,2013-07-05T13:00:00Z,28.8667,-90.4833,1015.41,11111222 
WAVCIS,ioos:station:WAVCIS:CSI06:1,2013-07-05T14:00:00Z,28.8667,-90.4833,1015.81,11111222 
WAVCIS,ioos:station:WAVCIS:CSI06:1,2013-07-05T15:00:00Z,28.8667,-90.4833,1016.23,11111222 
WAVCIS,ioos:station:WAVCIS:CSI06:1,2013-07-05T16:00:00Z,28.8667,-90.4833,1016.92,11111222 
WAVCIS,ioos:station:WAVCIS:CSI06:1,2013-07-05T17:00:00Z,28.8667,-90.4833,1017.08,11111222 
WAVCIS,ioos:station:WAVCIS:CSI06:1,2013-07-05T18:00:00Z,28.8667,-90.4833,1017.44,11111222 
WAVCIS,ioos:station:WAVCIS:CSI06:1,2013-07-05T19:00:00Z,28.8667,-90.4833,1016.08,11111222 
WAVCIS,ioos:station:WAVCIS:CSI06:1,2013-07-05T20:00:00Z,28.8667,-90.4833,1016.29,11111222 
WAVCIS,ioos:station:WAVCIS:CSI06:1,2013-07-05T21:00:00Z,28.8667,-90.4833,1015.72,11111222 
WAVCIS,ioos:station:WAVCIS:CSI06:1,2013-07-05T22:00:00Z,28.8667,-90.4833,1014.2,11111222 
WAVCIS,ioos:station:WAVCIS:CSI06:1,2013-07-05T23:00:00Z,28.8667,-90.4833,1014.02,11111222 
WAVCIS,ioos:station:WAVCIS:CSI06:1,2013-07-06T00:00:00Z,28.8667,-90.4833,1013.92,11111222 
WAVCIS,ioos:station:WAVCIS:CSI06:1,2013-07-06T01:00:00Z,28.8667,-90.4833,1013.87,11111222 
WAVCIS,ioos:station:WAVCIS:CSI06:1,2013-07-06T02:00:00Z,28.8667,-90.4833,1014.75,11111222 
WAVCIS,ioos:station:WAVCIS:CSI06:1,2013-07-06T03:00:00Z,28.8667,-90.4833,1015.12,11111222 
WAVCIS,ioos:station:WAVCIS:CSI06:1,2013-07-06T04:00:00Z,28.8667,-90.4833,1015.19,11111222 
WAVCIS,ioos:station:WAVCIS:CSI06:1,2013-07-06T05:00:00Z,28.8667,-90.4833,1015.22,11111222 
WAVCIS,ioos:station:WAVCIS:CSI06:1,2013-07-06T06:00:00Z,28.8667,-90.4833,1014.92,11111222 
WAVCIS,ioos:station:WAVCIS:CSI06:1,2013-07-06T07:00:00Z,28.8667,-90.4833,1014.56,11111222 
WAVCIS,ioos:station:WAVCIS:CSI06:1,2013-07-06T08:00:00Z,28.8667,-90.4833,1014.26,11111222 
WAVCIS,ioos:station:WAVCIS:CSI06:1,2013-07-06T09:00:00Z,28.8667,-90.4833,1014.48,11111222 
WAVCIS,ioos:station:WAVCIS:CSI06:1,2013-07-06T10:00:00Z,28.8667,-90.4833,1014.25,11111222 
WAVCIS,ioos:station:WAVCIS:CSI06:1,2013-07-06T11:00:00Z,28.8667,-90.4833,1014.35,11111222 
WAVCIS,ioos:station:WAVCIS:CSI06:1,2013-07-06T12:00:00Z,28.8667,-90.4833,1014.62,11111222 
WAVCIS,ioos:station:WAVCIS:CSI06:1,2013-07-06T13:00:00Z,28.8667,-90.4833,1015.16,11111222 
WAVCIS,ioos:station:WAVCIS:CSI06:1,2013-07-06T14:00:00Z,28.8667,-90.4833,1015.61,11111222 
WAVCIS,ioos:station:WAVCIS:CSI06:1,2013-07-06T15:00:00Z,28.8667,-90.4833,1015.77,11111222 
WAVCIS,ioos:station:WAVCIS:CSI06:1,2013-07-06T16:00:00Z,28.8667,-90.4833,1015.78,11111222 
WAVCIS,ioos:station:WAVCIS:CSI06:1,2013-07-06T17:00:00Z,28.8667,-90.4833,1015.56,11111222 
WAVCIS,ioos:station:WAVCIS:CSI06:1,2013-07-06T18:00:00Z,28.8667,-90.4833,1015.71,11111222 
WAVCIS,ioos:station:WAVCIS:CSI06:1,2013-07-06T19:00:00Z,28.8667,-90.4833,1015.3,11111222 
WAVCIS,ioos:station:WAVCIS:CSI06:1,2013-07-06T20:00:00Z,28.8667,-90.4833,1014.92,11111222 
WAVCIS,ioos:station:WAVCIS:CSI06:1,2013-07-06T21:00:00Z,28.8667,-90.4833,1014.87,11111222 
WAVCIS,ioos:station:WAVCIS:CSI06:1,2013-07-06T22:00:00Z,28.8667,-90.4833,1014.81,11111222 
WAVCIS,ioos:station:WAVCIS:CSI06:1,2013-07-06T23:00:00Z,28.8667,-90.4833,1014.68,11111222 
WAVCIS,ioos:station:WAVCIS:CSI06:1,2013-07-07T00:00:00Z,28.8667,-90.4833,1015.6,11111222 
WAVCIS,ioos:station:WAVCIS:CSI06:1,2013-07-07T01:00:00Z,28.8667,-90.4833,1014.91,11111222 
WAVCIS,ioos:station:WAVCIS:CSI06:1,2013-07-07T02:00:00Z,28.8667,-90.4833,1015.6,11111222 
WAVCIS,ioos:station:WAVCIS:CSI06:1,2013-07-07T03:00:00Z,28.8667,-90.4833,1016.22,11111222 
WAVCIS,ioos:station:WAVCIS:CSI06:1,2013-07-07T04:00:00Z,28.8667,-90.4833,1016.43,11111222 
WAVCIS,ioos:station:WAVCIS:CSI06:1,2013-07-07T05:00:00Z,28.8667,-90.4833,1016.16,11111222 
WAVCIS,ioos:station:WAVCIS:CSI06:1,2013-07-07T06:00:00Z,28.8667,-90.4833,1015.8,11111222 
WAVCIS,ioos:station:WAVCIS:CSI06:1,2013-07-07T07:00:00Z,28.8667,-90.4833,1015.56,11111222 
WAVCIS,ioos:station:WAVCIS:CSI06:1,2013-07-07T08:00:00Z,28.8667,-90.4833,1015.82,11111222 
WAVCIS,ioos:station:WAVCIS:CSI06:1,2013-07-07T09:00:00Z,28.8667,-90.4833,1016.06,11111222 
WAVCIS,ioos:station:WAVCIS:CSI06:1,2013-07-07T10:00:00Z,28.8667,-90.4833,1016.06,11111222 
WAVCIS,ioos:station:WAVCIS:CSI06:1,2013-07-07T11:00:00Z,28.8667,-90.4833,1016.22,11111222 
WAVCIS,ioos:station:WAVCIS:CSI06:1,2013-07-07T12:00:00Z,28.8667,-90.4833,1016.43,11111222 
WAVCIS,ioos:station:WAVCIS:CSI06:1,2013-07-07T13:00:00Z,28.8667,-90.4833,1017.08,11111222 
WAVCIS,ioos:station:WAVCIS:CSI06:1,2013-07-07T14:00:00Z,28.8667,-90.4833,1017.55,11111222 
WAVCIS,ioos:station:WAVCIS:CSI06:1,2013-07-07T15:00:00Z,28.8667,-90.4833,1017.88,11111222 
WAVCIS,ioos:station:WAVCIS:CSI06:1,2013-07-07T16:00:00Z,28.8667,-90.4833,1018.28,11111222 
WAVCIS,ioos:station:WAVCIS:CSI06:1,2013-07-07T17:00:00Z,28.8667,-90.4833,1018.56,11111222 
WAVCIS,ioos:station:WAVCIS:CSI06:1,2013-07-07T18:00:00Z,28.8667,-90.4833,1018.36,11111222 
WAVCIS,ioos:station:WAVCIS:CSI06:1,2013-07-07T19:00:00Z,28.8667,-90.4833,1017.9,11111222 
WAVCIS,ioos:station:WAVCIS:CSI06:1,2013-07-07T20:00:00Z,28.8667,-90.4833,1017.78,11111222 
WAVCIS,ioos:station:WAVCIS:CSI06:1,2013-07-07T21:00:00Z,28.8667,-90.4833,1017.84,11111222 
WAVCIS,ioos:station:WAVCIS:CSI06:1,2013-07-07T22:00:00Z,28.8667,-90.4833,1017.6,11111222 
WAVCIS,ioos:station:WAVCIS:CSI06:1,2013-07-07T23:00:00Z,28.8667,-90.4833,1017.71,11111222 
WAVCIS,ioos:station:WAVCIS:CSI06:1,2013-07-08T00:00:00Z,28.8667,-90.4833,1018.22,11111222 
WAVCIS,ioos:station:WAVCIS:CSI06:1,2013-07-08T01:00:00Z,28.8667,-90.4833,1019.9,11111222 
WAVCIS,ioos:station:WAVCIS:CSI06:1,2013-07-08T02:00:00Z,28.8667,-90.4833,1019.61,11111222 
WAVCIS,ioos:station:WAVCIS:CSI06:1,2013-07-08T03:00:00Z,28.8667,-90.4833,1019.25,11111222 
WAVCIS,ioos:station:WAVCIS:CSI06:1,2013-07-08T04:00:00Z,28.8667,-90.4833,1018.95,11111222 
WAVCIS,ioos:station:WAVCIS:CSI06:1,2013-07-08T05:00:00Z,28.8667,-90.4833,1018.47,11111222 
WAVCIS,ioos:station:WAVCIS:CSI06:1,2013-07-08T06:00:00Z,28.8667,-90.4833,1018.31,11111222 
WAVCIS,ioos:station:WAVCIS:CSI06:1,2013-07-08T07:00:00Z,28.8667,-90.4833,1018.16,11111222 
WAVCIS,ioos:station:WAVCIS:CSI06:1,2013-07-08T08:00:00Z,28.8667,-90.4833,1018.04,11111222 
WAVCIS,ioos:station:WAVCIS:CSI06:1,2013-07-08T09:00:00Z,28.8667,-90.4833,1018.56,11111222 
WAVCIS,ioos:station:WAVCIS:CSI06:1,2013-07-08T10:00:00Z,28.8667,-90.4833,1018.94,11111222 
WAVCIS,ioos:station:WAVCIS:CSI06:1,2013-07-08T11:00:00Z,28.8667,-90.4833,1019.3,11111222 
WAVCIS,ioos:station:WAVCIS:CSI06:1,2013-07-08T12:00:00Z,28.8667,-90.4833,1019.66,11111222 
WAVCIS,ioos:station:WAVCIS:CSI06:1,2013-07-08T13:00:00Z,28.8667,-90.4833,1020.21,11111222 
WAVCIS,ioos:station:WAVCIS:CSI06:1,2013-07-08T14:00:00Z,28.8667,-90.4833,1020.99,11111222 
WAVCIS,ioos:station:WAVCIS:CSI06:1,2013-07-08T15:00:00Z,28.8667,-90.4833,1021.28,11111222 
WAVCIS,ioos:station:WAVCIS:CSI06:1,2013-07-08T16:00:00Z,28.8667,-90.4833,1021.59,11111222 
WAVCIS,ioos:station:WAVCIS:CSI06:1,2013-07-08T17:00:00Z,28.8667,-90.4833,1021.57,11111222 
WAVCIS,ioos:station:WAVCIS:CSI06:1,2013-07-08T18:00:00Z,28.8667,-90.4833,1021.55,11111222 
WAVCIS,ioos:station:WAVCIS:CSI06:1,2013-07-08T19:00:00Z,28.8667,-90.4833,1021.06,11111222 
WAVCIS,ioos:station:WAVCIS:CSI06:1,2013-07-08T20:00:00Z,28.8667,-90.4833,1020.51,11111222 
WAVCIS,ioos:station:WAVCIS:CSI06:1,2013-07-08T21:00:00Z,28.8667,-90.4833,1020.32,11111222 
WAVCIS,ioos:station:WAVCIS:CSI06:1,2013-07-08T22:00:00Z,28.8667,-90.4833,1020.47,11111222 
WAVCIS,ioos:station:WAVCIS:CSI06:1,2013-07-08T23:00:00Z,28.8667,-90.4833,1019.95,11111222 
WAVCIS,ioos:station:WAVCIS:CSI06:1,2013-07-09T00:00:00Z,28.8667,-90.4833,1020.14,11111222 
WAVCIS,ioos:station:WAVCIS:CSI06:1,2013-07-09T01:00:00Z,28.8667,-90.4833,1020.41,11111222 
WAVCIS,ioos:station:WAVCIS:CSI06:1,2013-07-09T02:00:00Z,28.8667,-90.4833,1020.31,11111222 
WAVCIS,ioos:station:WAVCIS:CSI06:1,2013-07-09T03:00:00Z,28.8667,-90.4833,1020.69,11111222 
WAVCIS,ioos:station:WAVCIS:CSI06:1,2013-07-09T04:00:00Z,28.8667,-90.4833,1021.35,11111222 
WAVCIS,ioos:station:WAVCIS:CSI06:1,2013-07-09T05:00:00Z,28.8667,-90.4833,1021.12,11111222 
WAVCIS,ioos:station:WAVCIS:CSI06:1,2013-07-09T06:00:00Z,28.8667,-90.4833,1020.7,11111222 
WAVCIS,ioos:station:WAVCIS:CSI06:1,2013-07-09T07:00:00Z,28.8667,-90.4833,1020.46,11111222 
WAVCIS,ioos:station:WAVCIS:CSI06:1,2013-07-09T08:00:00Z,28.8667,-90.4833,1020.24,11111222 
WAVCIS,ioos:station:WAVCIS:CSI06:1,2013-07-09T09:00:00Z,28.8667,-90.4833,1020.22,11111222 
WAVCIS,ioos:station:WAVCIS:CSI06:1,2013-07-09T10:00:00Z,28.8667,-90.4833,1020.41,11111222 
WAVCIS,ioos:station:WAVCIS:CSI06:1,2013-07-09T11:00:00Z,28.8667,-90.4833,1020.73,11111222 
WAVCIS,ioos:station:WAVCIS:CSI06:1,2013-07-09T12:00:00Z,28.8667,-90.4833,1021.06,11111222 
WAVCIS,ioos:station:WAVCIS:CSI06:1,2013-07-09T13:00:00Z,28.8667,-90.4833,1021.82,11111222 
WAVCIS,ioos:station:WAVCIS:CSI06:1,2013-07-09T14:00:00Z,28.8667,-90.4833,1021.85,11111222 
WAVCIS,ioos:station:WAVCIS:CSI06:1,2013-07-09T15:00:00Z,28.8667,-90.4833,1022.32,11111222 
WAVCIS,ioos:station:WAVCIS:CSI06:1,2013-07-09T16:00:00Z,28.8667,-90.4833,1022.67,11111222 
WAVCIS,ioos:station:WAVCIS:CSI06:1,2013-07-09T17:00:00Z,28.8667,-90.4833,1022.31,11111222 
WAVCIS,ioos:station:WAVCIS:CSI06:1,2013-07-09T18:00:00Z,28.8667,-90.4833,1022.26,11111222 
WAVCIS,ioos:station:WAVCIS:CSI06:1,2013-07-09T19:00:00Z,28.8667,-90.4833,1021.9,11111222 
WAVCIS,ioos:station:WAVCIS:CSI06:1,2013-07-09T20:00:00Z,28.8667,-90.4833,1021.48,11111222 
WAVCIS,ioos:station:WAVCIS:CSI06:1,2013-07-09T21:00:00Z,28.8667,-90.4833,1020.89,11111222 
WAVCIS,ioos:station:WAVCIS:CSI06:1,2013-07-09T22:00:00Z,28.8667,-90.4833,1020.07,11111222 
WAVCIS,ioos:station:WAVCIS:CSI06:1,2013-07-09T23:00:00Z,28.8667,-90.4833,1019.48,11111222 
WAVCIS,ioos:station:WAVCIS:CSI06:1,2013-07-10T00:00:00Z,28.8667,-90.4833,1019.47,11111222 
WAVCIS,ioos:station:WAVCIS:CSI06:1,2013-07-10T01:00:00Z,28.8667,-90.4833,1019.63,11111222 
WAVCIS,ioos:station:WAVCIS:CSI06:1,2013-07-10T02:00:00Z,28.8667,-90.4833,1019.45,11111222 
WAVCIS,ioos:station:WAVCIS:CSI06:1,2013-07-10T03:00:00Z,28.8667,-90.4833,1019.9,11111222 
WAVCIS,ioos:station:WAVCIS:CSI06:1,2013-07-10T04:00:00Z,28.8667,-90.4833,1020.12,11111222 
WAVCIS,ioos:station:WAVCIS:CSI06:1,2013-07-10T05:00:00Z,28.8667,-90.4833,1020.31,11111222 
WAVCIS,ioos:station:WAVCIS:CSI06:1,2013-07-10T06:00:00Z,28.8667,-90.4833,1019.85,11111222 
WAVCIS,ioos:station:WAVCIS:CSI06:1,2013-07-10T07:00:00Z,28.8667,-90.4833,1019.19,11111222 
WAVCIS,ioos:station:WAVCIS:CSI06:1,2013-07-10T08:00:00Z,28.8667,-90.4833,1019.19,11111222 
WAVCIS,ioos:station:WAVCIS:CSI06:1,2013-07-10T09:00:00Z,28.8667,-90.4833,1019.4,11111222 
WAVCIS,ioos:station:WAVCIS:CSI06:1,2013-07-10T10:00:00Z,28.8667,-90.4833,1019.39,11111222 
WAVCIS,ioos:station:WAVCIS:CSI06:1,2013-07-10T11:00:00Z,28.8667,-90.4833,1019.42,11111222 
WAVCIS,ioos:station:WAVCIS:CSI06:1,2013-07-10T12:00:00Z,28.8667,-90.4833,1019.84,11111222 
WAVCIS,ioos:station:WAVCIS:CSI06:1,2013-07-10T13:00:00Z,28.8667,-90.4833,1020.33,11111222 
WAVCIS,ioos:station:WAVCIS:CSI06:1,2013-07-10T14:00:00Z,28.8667,-90.4833,1020.25,11111222 
WAVCIS,ioos:station:WAVCIS:CSI06:1,2013-07-10T15:00:00Z,28.8667,-90.4833,1020.13,11111222 
WAVCIS,ioos:station:WAVCIS:CSI06:1,2013-07-10T16:00:00Z,28.8667,-90.4833,1020.53,11111222 
WAVCIS,ioos:station:WAVCIS:CSI06:1,2013-07-10T17:00:00Z,28.8667,-90.4833,1020.57,11111222 
WAVCIS,ioos:station:WAVCIS:CSI06:1,2013-07-10T18:00:00Z,28.8667,-90.4833,1019.82,11111222 
WAVCIS,ioos:station:WAVCIS:CSI06:1,2013-07-10T19:00:00Z,28.8667,-90.4833,1019.01,11111222 
WAVCIS,ioos:station:WAVCIS:CSI06:1,2013-07-10T20:00:00Z,28.8667,-90.4833,1018.31,11111222 
WAVCIS,ioos:station:WAVCIS:CSI06:1,2013-07-10T21:00:00Z,28.8667,-90.4833,1017.76,11111222 
WAVCIS,ioos:station:WAVCIS:CSI06:1,2013-07-10T22:00:00Z,28.8667,-90.4833,1017.32,11111222 
WAVCIS,ioos:station:WAVCIS:CSI06:1,2013-07-10T23:00:00Z,28.8667,-90.4833,1016.91,11111222 
WAVCIS,ioos:station:WAVCIS:CSI06:1,2013-07-11T00:00:00Z,28.8667,-90.4833,1016.86,11111222 
WAVCIS,ioos:station:WAVCIS:CSI06:1,2013-07-11T01:00:00Z,28.8667,-90.4833,1016.63,11111222 
WAVCIS,ioos:station:WAVCIS:CSI06:1,2013-07-11T02:00:00Z,28.8667,-90.4833,1016.37,11111222 
WAVCIS,ioos:station:WAVCIS:CSI06:1,2013-07-11T04:00:00Z,28.8667,-90.4833,1016.93,11111222 
WAVCIS,ioos:station:WAVCIS:CSI06:1,2013-07-11T05:00:00Z,28.8667,-90.4833,1016.71,11111222 
WAVCIS,ioos:station:WAVCIS:CSI06:1,2013-07-11T06:00:00Z,28.8667,-90.4833,1016.67,11111222 
WAVCIS,ioos:station:WAVCIS:CSI06:1,2013-07-11T07:00:00Z,28.8667,-90.4833,1016.49,11111222 
WAVCIS,ioos:station:WAVCIS:CSI06:1,2013-07-11T08:00:00Z,28.8667,-90.4833,1016.66,11111222 
WAVCIS,ioos:station:WAVCIS:CSI06:1,2013-07-11T09:00:00Z,28.8667,-90.4833,1016.55,11111222 
WAVCIS,ioos:station:WAVCIS:CSI06:1,2013-07-11T10:00:00Z,28.8667,-90.4833,1016.19,11111222 
WAVCIS,ioos:station:WAVCIS:CSI06:1,2013-07-11T11:00:00Z,28.8667,-90.4833,1015.99,11111222 
WAVCIS,ioos:station:WAVCIS:CSI06:1,2013-07-11T12:00:00Z,28.8667,-90.4833,1016.48,11111222 
WAVCIS,ioos:station:WAVCIS:CSI06:1,2013-07-11T13:00:00Z,28.8667,-90.4833,1016.67,11111222 
WAVCIS,ioos:station:WAVCIS:CSI06:1,2013-07-11T14:00:00Z,28.8667,-90.4833,1016.87,11111222 
WAVCIS,ioos:station:WAVCIS:CSI06:1,2013-07-11T15:00:00Z,28.8667,-90.4833,1016.89,11111222 
WAVCIS,ioos:station:WAVCIS:CSI06:1,2013-07-11T16:00:00Z,28.8667,-90.4833,1017.14,11111222 
WAVCIS,ioos:station:WAVCIS:CSI06:1,2013-07-11T17:00:00Z,28.8667,-90.4833,1016.76,11111222 
WAVCIS,ioos:station:WAVCIS:CSI06:1,2013-07-11T18:00:00Z,28.8667,-90.4833,1016.21,11111222 
WAVCIS,ioos:station:WAVCIS:CSI06:1,2013-07-11T19:00:00Z,28.8667,-90.4833,1015.53,11111222 
WAVCIS,ioos:station:WAVCIS:CSI06:1,2013-07-11T20:00:00Z,28.8667,-90.4833,1015.59,11111222 
WAVCIS,ioos:station:WAVCIS:CSI06:1,2013-07-11T21:00:00Z,28.8667,-90.4833,1014.92,11111222 
WAVCIS,ioos:station:WAVCIS:CSI06:1,2013-07-11T22:00:00Z,28.8667,-90.4833,1014.66,11111222 
WAVCIS,ioos:station:WAVCIS:CSI06:1,2013-07-11T23:00:00Z,28.8667,-90.4833,1014.35,11111222 